Regional Weather Roundup
Issued by NWS

Home | Current Version | Previous Version | Text Only | Print | Product List | Glossary On
Versions: 1 2 3 4 5 6 7 8 9 10 11 12 13 14 15 16 17 18 19 20 21 22 23 24 25 26 27 28 29 30 31 32 33 34 35 36 37 38 39 40 41 42 43 44 45 46 47 48 49 50
000
ASUS43 KMPX 261801
RWRMN
WEATHER ROUNDUP FOR MINNESOTA
NATIONAL WEATHER SERVICE TWIN CITIES/CHANHASSEN MN
100 PM CDT THU APR 26 2018


NOTE: "FAIR" INDICATES FEW OR NO CLOUDS BELOW 12,000 FEET WITH NO
SIGNIFICANT WEATHER AND/OR OBSTRUCTIONS TO VISIBILITY. N/A MEANS
CURRENT SKY AND/OR WEATHER CONDITIONS ARE NOT AVAILABLE.

MNZ060>063-068>070-261900-
   Twin Cities Metro

CITY           SKY/WX    TMP DP  RH WIND       PRES   REMARKS
TWIN CITIES    FAIR      62  36  37 W16G24    29.86F
6HR MIN TEMP:  46; 6HR MAX TEMP:  62;

ST PAUL        FAIR      61  35  37 NW8G20    29.86S
CRYSTAL        FAIR      61  36  39 NW15G23   29.86S
BLAINE         MOSUNNY   63  36  36 NW14      29.86S
LAKEVILLE      FAIR      59  37  44 NW15      29.86S
EDEN PRAIRIE   FAIR      60  37  42 NW13G22   29.86F
6HR MIN TEMP:  42; 6HR MAX TEMP:  60;

SOUTH ST PAUL  FAIR      62  32  33 W10       29.85S
LAKE ELMO      FAIR      61  36  39 N7G17     29.86S
$$
MNZ001>005-007-008-013>017-022>024-027-028-261900-
   Northwest Minnesota

CITY           SKY/WX    TMP DP  RH WIND       PRES   REMARKS
BEMIDJI        FAIR      52  28  39 N17G23    29.96F
HALLOCK        FAIR      55  19  24 NW17G25   30.03F
ROSEAU         FAIR      52  34  50 NW14G23   29.98F
WARROAD        FAIR      52  28  40 NW18      29.98F
THIEF RVR FALL FAIR      51  28  41 NW17      30.03S
CROOKSTON      FAIR      52  32  46 N22       30.05S
FOSSTON        FAIR      50  28  43 NW16      30.01F
DETROIT LAKES  FAIR      50  32  50 NW21G29   30.02S
MOORHEAD       FAIR      54  27  35 N23G35    30.05F
PARK RAPIDS    FAIR      54  29  38 N17G24    29.95S
MAHNOMEN       FAIR      50  31  48 N20G29    30.01S
$$
MNZ006-009>011-018-025>026-261900-
   North Central Minnesota

CITY           SKY/WX    TMP DP  RH WIND       PRES   REMARKS
BAUDETTE       FAIR      50  30  46 NW15G23   29.97R
FLAG ISLAND    FAIR      45  27  49 N12       29.96F
INTL FALLS     PTSUNNY   52  30  43 NW12      29.92S
6HR MIN TEMP:  43; 6HR MAX TEMP:  52;

WASKISH        PTSUNNY   52  30  43 N10G16    29.96S
BIG FORK       FAIR      54  30  40 N7G16     29.92S
LONGVILLE      FAIR      52  32  46 W18G26    29.93S
GRAND RAPIDS   CLOUDY    51  32  48 N13G22    29.92R
CRANE LAKE     CLOUDY    45  30  57 NW9G16    29.92S
ORR            PTSUNNY   50  27  40 NW10      29.89S
COOK           CLOUDY    48  30  49 N9G17     29.90F
WALKER         FAIR      51  31  46 N14G23    29.95S
$$
MNZ012-019>021-037-261900-
   Northeast Minnesota

CITY           SKY/WX    TMP DP  RH WIND       PRES   REMARKS
DULUTH         FAIR      53  36  52 N16G25    29.84R
6HR MIN TEMP:  42; 6HR MAX TEMP:  55;

ELY            CLOUDY    45  32  61 NW13G20   29.88R
HIBBING        PTSUNNY   51  31  46 NW20G28   29.88S
EVELETH        FAIR      50  32  50 N15G24    29.89R
DULUTH HARBOR  FAIR      54  37  54 NW15G21   29.85R
TWO HARBORS    FAIR      57  41  54 NW8G20    29.82R
SILVER BAY     PTSUNNY   54  36  50 N12G21    29.82S
GRAND MARAIS     N/A     54  37  52 N8G21     29.81R
G MARAIS ARPRT CLOUDY    43  32  65 NW17G25   29.80R
$$
MNZ029>031-032-039>041-046>048-054>057-064-261900-
   West Central Minnesota

CITY           SKY/WX    TMP DP  RH WIND       PRES   REMARKS
FERGUS FALLS   FAIR      54  28  37 N25G36    29.98F
WHEATON        SUNNY     55  28  35 NW26G37   30.05S
MORRIS         SUNNY     54  30  40 NW29G40   30.00S
ALEXANDRIA     FAIR      57  27  31 N20G28    29.97R
ELBOW LAKE     FAIR      51  26  37 NW20G32   30.01R
WADENA         FAIR      54  34  47 N16G23    29.95S
GLENWOOD       FAIR      55  27  33 NW18G29   29.97R
APPLETON       SUNNY     57  30  35 N22G35    30.01S
BENSON         SUNNY     57  25  28 N28G37    30.00S
ORTONVILLE     SUNNY     55  32  41 N24G33    30.03R
MADISON        SUNNY     57  32  38 N28G35    30.02S
WILLMAR        FAIR      57  30  35 NW22G31   29.98R
$$
MNZ033>034-036-042>043-049>051-058-059-261900-
   Central Minnesota

CITY           SKY/WX    TMP DP  RH WIND       PRES   REMARKS
ST CLOUD       FAIR      59  32  36 N18G28    29.89S
6HR MIN TEMP:  38; 6HR MAX TEMP:  60;

SAUK CENTRE    FAIR      56  28  33 NW15G23   29.94S
PAYNESVILLE    FAIR      59  32  35 NW18G25   29.94R
AITKIN         FAIR      55  32  41 N14       29.88S
PINE RIVER     FAIR      52  30  43 N16G24    29.96S
BRAINERD       FAIR      56  31  38 N14G26    29.92S
STAPLES        FAIR      57  27  30 NW13G21   29.93S
LONG PRAIRIE   FAIR      55  28  35 W13G25    29.94S
LITTLE FALLS   FAIR      57  19  23 N8        29.91S
LITCHFIELD     FAIR      61  34  36 N14G20    29.92S
BUFFALO        FAIR      60  33  36 NW14G20   29.89F
MAPLE LAKE     FAIR      60  38  44 N17       29.90S
HUTCHINSON     FAIR      60  38  45 N17G24    29.92S
$$
MNZ037-044-045-052-053-261900-
   East Central Minnesota

CITY           SKY/WX    TMP DP  RH WIND       PRES   REMARKS
PRINCETON      FAIR      63  36  36 NW15G21   29.88S
MORA           FAIR      57  34  41 NW18G24   29.87S
CAMBRIDGE      FAIR      61  41  48 NW13G21   29.87S
RUSH CITY      FAIR      58  36  43 N12G18    29.86S
MOOSE LAKE     FAIR      57  32  38 N16G24    29.85R
HINCKLEY       FAIR      59  37  44 NW10G18   29.85S
CLOQUET        FAIR      55  30  38 N15G26    29.85S
MCGREGOR       FAIR      55  32  41 NW21      29.88S
$$
MNZ071>073-080-081-089-090-097-098-261900-
   Southwest Minnesota

CITY           SKY/WX    TMP DP  RH WIND       PRES   REMARKS
MONTEVIDEO     SUNNY     57  32  38 N28G36    29.99S
GRANITE FALLS  SUNNY     58  33  38 NW28G37   30.00R
CANBY          SUNNY     56  32  39 N21G32    30.03S
MARSHALL       SUNNY     54  34  46 N31       29.98S
REDWOOD FALLS  SUNNY     59  32  36 N16G30    29.95R
OLIVIA         SUNNY     59  36  41 NW25      29.94S
PIPESTONE      SUNNY    N/A N/A N/A N18G32    30.01R
WINDOM         SUNNY     57  36  44 N26G36    29.94R
WORTHINGTON    SUNNY     56  40  55 N23G35    29.97R
JACKSON        MOSUNNY   55  43  62 N18G26    29.94S
TRACY          SUNNY     55  40  57 N26G33    29.98R
SLAYTON        SUNNY     53  39  60 N29G36    29.98R
$$
MNZ065>067-074>077-082>085-091>093-261900-
   South Central Minnesota

CITY           SKY/WX    TMP DP  RH WIND       PRES   REMARKS
MANKATO        FAIR      57  38  48 NW14      29.90S
NEW ULM        SUNNY     59  37  44 N14G24    29.91S
ST JAMES       MOSUNNY   57  45  62 NW21G28   29.93S
FAIRMONT       PTSUNNY   54  44  69 NW15G25   29.92S
GLENCOE        FAIR      60  39  45 NW16G22   29.90R
OWATONNA       FAIR      61  39  44 W13       29.88R
WASECA         FAIR      57  41  54 W15       29.90S
ALBERT LEA     FAIR      61  37  41 W12G22    29.88F
$$
MNZ078>079-086>088-094>096-261900-
   Southeast Minnesota

CITY           SKY/WX    TMP DP  RH WIND       PRES   REMARKS
ROCHESTER      FAIR      61  40  45 SW21      29.88F
6HR MIN TEMP:  36; 6HR MAX TEMP:  61;

RED WING       FAIR      66  30  26 E15G24    29.83S
STANTON        FAIR      62  38  42 W15G21    29.85S
DODGE CENTER   FAIR      61  39  44 W18G24    29.87S
WINONA         FAIR      66  36  32 W9        29.83F
AUSTIN         FAIR      61  39  44 W18G24    29.88F
PRESTON        FAIR      62  32  32 W14G21    29.89S
$$
ABBREVIATIONS USED IN REMARKS
   TC - TEMPERATURES IN CELSIUS
  WCI - WIND CHILL INDEX
   HX - HEAT INDEX
  VSB - VISIBILITY
$$



USA.gov is the U.S. government's official web portal to all federal, state and local government web resources and services.